Portada
METAR-TAF:

METAR-TAF

Aeroports :

Berbérati, República Centreafricana

latitud: 04-15N, longitud: 015-48E, altitud: 582 m

Observació

L'informe es va fer fa 9 hores i 52 minuts, a les 10:00 UTC
Vent 8 kt del Oest
Temperatura 26°C
Humitat 79%
Pressió 1017 hPa
Visibilitat 10 km o més
Cel ennuvolat a una alçada de 1200 ft

METAR: FEFT 231000Z 28008KT 9999 BKN012 26/22 Q1017

Hora: 20:52 (19:52 UTC)


TAF: manca

Observacions i pronòstics meteorològics de més de 4000 aeroports (METAR i TAF).

Les estacions disponibles són els punts grocs i vermells al mapa.

Posi el ratolí al punt desitjat per veure el nom de l'estació.

Feu clic per veure les observacions i els pronòstics meteorològics.

Per canviar el mapa: feu clic els botons verds amb una creu de color negre per apropar; al botó verd amb un guió per allunyar la imatge; o en les fletxes verdes per a mapes adjacents.


METAR-TAF: